Location: Saluda
(35.2377°N, 82.3468°W)
Time: 21:38:01
(UTC+00:00)

Tiros 1 - Pass Details

Date: 08 October 2022
Orbit: 629 x 662 km, 48.4° (Epoch: 08 December)

Event Time Altitude Azimuth Distance (km) Brightness Sun altitude
Exits shadow 08:41:09 18° 108° (ESE) 1,586 9.6 -34.8°
Drops below altitude 10° 08:42:23 10° 113° (ESE) 2,040 10.2 -34.5°
Sets 08:44:44 0° 117° (ESE) 2,941 11.1 -34.1°
